(221693) = 2007 DM53

Discovered at Mount Lemmon on 2007-02-19 by Mt. Lemmon Survey.

Orbit

Orbit type: Main Belt

Note: WebGL enabled browser required.

epoch2023-09-13.0
epoch JD2460200.5
perihelion date2019-04-29.12025
perihelion JD2458602.62025
argument of perihelion (°)97.54161
ascending node (°)185.43670
inclination (°)9.25224
eccentricity0.0483140
perihelion distance (AU)2.9027160
Tisserand w.r.t. Jupiter3.2
ΔV w.r.t. Earth (km/sec)11.0
semimajor axis (AU)3.0500775
mean anomaly (°)295.65255
mean daily motion (°/day)0.18502800
aphelion distance (AU)3.197
period (years)5.33
P-vector [x]0.22336020
P-vector [y]-0.94566708
P-vector [z]-0.23627100
Q-vector [x]0.97461693
Q-vector [y]0.21288442
Q-vector [z]0.06929690
absolute magnitude15.82
phase slope0.15
uncertainty0
referenceMPEC 2023-Y71
observations used444
oppositions14
arc length (days)7729
first opposition used2002
last opposition used2023
residual rms (arc-secs)0.64
perturbers coarse indicatorM-v
perturbers precise indicator003Ek
first observation date used2002-02-18.0
last observation date used2023-04-18.0
computer nameMPCLINUX
JD of orbit computation2456966.934140
perihelion JD uncertainty (days)5.1358E-04
argument of perihelion uncertainty (°)1.0350E-04
ascending node uncertainty (°)2.4768E-05
inclination uncertainty (°)7.6638E-06
eccentricity uncertainty 3.7334E-08
perihelion distance uncertainty (AU)1.1797E-07
Minimum Orbit Intersection Distances (in AU)
for orbit epoch: 2460200.5, reference: E2023-Y71
Mercury2.45731
Venus2.19179
Earth1.90542
Mars1.40355
Jupiter1.88026
Saturn5.90931
Uranus15.3359
Neptune26.7384

Observations

463 total observations over interval: 2002 02 18.36704 – 2023 04 18.301356
These data are available for download (format description).

Date (UT) J2000 RA J2000 Dec Magn Location Ref
2002 02 18.36704 13 57 43.00 -10 09 57.8 22.0   807 – Cerro Tololo Observatory, La Serena MPS 208138
2002 02 18.37517 13 57 43.11 -10 09 56.6 22.5   807 – Cerro Tololo Observatory, La Serena MPS 208138
2002 04 08.28211 13 42 18.13 -06 06 42.7 19.6   644 – Palomar Mountain/NEAT MPS 208138
2002 04 08.36320 13 42 14.64 -06 06 08.3 19.9   644 – Palomar Mountain/NEAT MPS 208138
2002 04 08.42736 13 42 11.89 -06 05 41.6 19.9   644 – Palomar Mountain/NEAT MPS 208138
2002 04 14.32864 13 38 02.09 -05 24 20.3 20.7 V 691 – Steward Observatory, Kitt Peak-Spacewatch MPS 208138
2002 04 14.34952 13 38 01.17 -05 24 12.0 20.6 V 691 – Steward Observatory, Kitt Peak-Spacewatch MPS 208138
2002 04 14.37038 13 38 00.23 -05 24 03.0 20.5 V 691 – Steward Observatory, Kitt Peak-Spacewatch MPS 208138
2004 09 07.44328 02 05 40.59 +09 49 02.1 20.5 V 691 – Steward Observatory, Kitt Peak-Spacewatch MPS 208138
2004 09 07.47023 02 05 40.32 +09 48 55.4 20.6 V 691 – Steward Observatory, Kitt Peak-Spacewatch MPS 208138
2004 09 07.49650 02 05 40.04 +09 48 49.1 20.7 V 691 – Steward Observatory, Kitt Peak-Spacewatch MPS 208138
2004 09 17.44410 02 03 03.33 +09 01 44.9 20.4 V 691 – Steward Observatory, Kitt Peak-Spacewatch MPS 208138
2004 09 17.47045 02 03 02.71 +09 01 36.6 20.5 V 691 – Steward Observatory, Kitt Peak-Spacewatch MPS 208138
2004 09 17.49725 02 03 02.10 +09 01 27.6 20.9 V 691 – Steward Observatory, Kitt Peak-Spacewatch MPS 208138
2007 02 19.37138 12 08 19.75 -03 55 15.7 20.4 V G96 – Mt. Lemmon Survey MPS 201630
2007 02 19.37757 12 08 19.57 -03 55 14.0 20.8 V G96 – Mt. Lemmon Survey MPS 201630
2007 02 19.38381 12 08 19.42 -03 55 12.0 20.7 V G96 – Mt. Lemmon Survey MPS 201630
2007 02 19.38997 12 08 19.28 -03 55 10.3 20.7 V G96 – Mt. Lemmon Survey MPS 201630
2007 02 23.40762 12 06 28.20 -03 35 21.8 21.0 V 691 – Steward Observatory, Kitt Peak-Spacewatch MPS 201630
2007 02 23.42524 12 06 27.60 -03 35 17.0 21.0 V 691 – Steward Observatory, Kitt Peak-Spacewatch MPS 201630
2007 02 23.44287 12 06 27.09 -03 35 10.8 20.5 V 691 – Steward Observatory, Kitt Peak-Spacewatch MPS 201630
2007 03 11.37698 11 56 53.84 -01 56 46.8 19.6 V G96 – Mt. Lemmon Survey MPS 208138
2007 03 11.38435 11 56 53.59 -01 56 43.4 19.3 V G96 – Mt. Lemmon Survey MPS 208138
2007 03 11.39172 11 56 53.23 -01 56 40.4 19.6 V G96 – Mt. Lemmon Survey MPS 208138
2007 03 11.39911 11 56 52.90 -01 56 37.7 19.8 V G96 – Mt. Lemmon Survey MPS 208138
2007 03 20.31870 11 50 39.30 -00 52 36.2 19.6 V G96 – Mt. Lemmon Survey MPS 208138
2007 03 20.32565 11 50 38.97 -00 52 32.8 19.6 V G96 – Mt. Lemmon Survey MPS 208138
2007 03 20.33268 11 50 38.68 -00 52 30.3 19.7 V G96 – Mt. Lemmon Survey MPS 208138
2007 03 20.33972 11 50 38.36 -00 52 27.3 19.8 V G96 – Mt. Lemmon Survey MPS 208138
2007 04 07.24035 11 38 50.28 +01 14 45.7 20.1 V G96 – Mt. Lemmon Survey MPS 208138
2007 04 07.24704 11 38 50.02 +01 14 48.7 20.1 V G96 – Mt. Lemmon Survey MPS 208138
2007 04 07.25370 11 38 49.77 +01 14 51.2 20.1 V G96 – Mt. Lemmon Survey MPS 208138
2007 04 07.26043 11 38 49.56 +01 14 53.8 20.0 V G96 – Mt. Lemmon Survey MPS 208138
2007 04 07.28869 11 38 48.55 +01 15 05.1 20.1 V G96 – Mt. Lemmon Survey MPS 208138
2007 04 07.29815 11 38 48.19 +01 15 08.9 19.2 V G96 – Mt. Lemmon Survey MPS 208138
2007 04 07.30766 11 38 47.86 +01 15 12.6 20.4 V G96 – Mt. Lemmon Survey MPS 208138
2007 04 07.31722 11 38 47.50 +01 15 16.3 20.5 V G96 – Mt. Lemmon Survey MPS 208138
2007 04 19.24615 11 33 01.15 +02 26 03.7 20.1 V G96 – Mt. Lemmon Survey MPS 208138
2007 04 19.24927 11 33 01.11 +02 26 04.6 19.9 V G96 – Mt. Lemmon Survey MPS 208138
2007 04 19.25234 11 33 01.00 +02 26 05.7 20.6 V G96 – Mt. Lemmon Survey MPS 208138
2007 04 19.25540 11 33 00.97 +02 26 06.5 20.5 V G96 – Mt. Lemmon Survey MPS 208138
2007 04 23.19081 11 31 39.46 +02 45 30.3 19.8 V G96 – Mt. Lemmon Survey MPS 208138
2007 04 23.19844 11 31 39.32 +02 45 33.0 19.9 V G96 – Mt. Lemmon Survey MPS 208138
2007 04 23.20605 11 31 39.18 +02 45 35.1 20.0 V G96 – Mt. Lemmon Survey MPS 208138
2007 04 23.21368 11 31 39.03 +02 45 37.2 19.8 V G96 – Mt. Lemmon Survey MPS 208138
2009 08 20.35375 00 13 03.07 +04 34 40.0   691 – Steward Observatory, Kitt Peak-Spacewatch MPS 291782
2009 08 20.37193 00 13 02.68 +04 34 35.2   691 – Steward Observatory, Kitt Peak-Spacewatch MPS 291782
2009 08 20.39003 00 13 02.26 +04 34 30.4   691 – Steward Observatory, Kitt Peak-Spacewatch MPS 291782
2009 08 27.38911 00 10 09.43 +04 00 16.9 20.2 V 691 – Steward Observatory, Kitt Peak-Spacewatch MPS 292649
2009 08 27.40673 00 10 08.90 +04 00 11.1 20.1 V 691 – Steward Observatory, Kitt Peak-Spacewatch MPS 292649
2009 08 27.42434 00 10 08.39 +04 00 05.5 20.0 V 691 – Steward Observatory, Kitt Peak-Spacewatch MPS 292649
2009 09 14.25037 23 59 38.22 +02 04 44.1 19.2   704 – Lincoln Laboratory ETS, New Mexico MPS 295047
2009 09 14.26207 23 59 37.73 +02 04 37.9 19.8   704 – Lincoln Laboratory ETS, New Mexico MPS 295047
2009 09 14.27381 23 59 37.24 +02 04 33.7 20.0   704 – Lincoln Laboratory ETS, New Mexico MPS 295047
2009 09 14.28552 23 59 36.77 +02 04 28.3 20.0   704 – Lincoln Laboratory ETS, New Mexico MPS 295047
2009 09 14.29723 23 59 36.23 +02 04 22.5 20.2   704 – Lincoln Laboratory ETS, New Mexico MPS 295047
2009 09 16.36817 23 58 11.67 +01 49 09.6 19.6 V G96 – Mt. Lemmon Survey MPS 295047
2009 09 16.37504 23 58 11.38 +01 49 06.6 19.6 V G96 – Mt. Lemmon Survey MPS 295047
2009 09 16.38200 23 58 11.10 +01 49 03.4 19.2 V G96 – Mt. Lemmon Survey MPS 295047
2009 09 16.38974 23 58 10.74 +01 48 59.9 19.8 V G96 – Mt. Lemmon Survey MPS 295047
2009 09 28.23469 23 50 02.58 +00 20 00.7 19.7 V G96 – Mt. Lemmon Survey MPS 296980
2009 09 28.24218 23 50 02.29 +00 19 57.4 19.6 V G96 – Mt. Lemmon Survey MPS 296980
2009 09 28.24962 23 50 01.96 +00 19 53.9 19.8 V G96 – Mt. Lemmon Survey MPS 296980
2009 09 28.25715 23 50 01.64 +00 19 50.7 19.5 V G96 – Mt. Lemmon Survey MPS 296980
2009 10 18.22999 23 38 42.39 -01 54 51.8 20.1 V G96 – Mt. Lemmon Survey MPS 300521
2009 10 18.23793 23 38 42.18 -01 54 54.4 20.0 V G96 – Mt. Lemmon Survey MPS 300521
2009 10 18.24601 23 38 41.96 -01 54 56.9 20.1 V G96 – Mt. Lemmon Survey MPS 300521
2009 10 18.25399 23 38 41.78 -01 54 59.7 20.1 V G96 – Mt. Lemmon Survey MPS 300521
2012 01 31.41396 10 25 35.85 +01 33 46.8   691 – Steward Observatory, Kitt Peak-Spacewatch MPS 411371
2012 01 31.42914 10 25 35.31 +01 33 50.1   691 – Steward Observatory, Kitt Peak-Spacewatch MPS 411371
2012 01 31.44431 10 25 34.76 +01 33 53.5   691 – Steward Observatory, Kitt Peak-Spacewatch MPS 411371
2012 02 25.30398 10 08 23.64 +03 48 47.3 20.1 V 703 – Catalina Sky Survey MPS 415903
2012 02 25.30962 10 08 23.46 +03 48 50.3 19.5 V 703 – Catalina Sky Survey MPS 415903
2012 02 25.31529 10 08 23.06 +03 48 52.3 19.5 V 703 – Catalina Sky Survey MPS 415903
2012 02 25.32093 10 08 22.84 +03 48 54.4 19.8 V 703 – Catalina Sky Survey MPS 415903
2012 05 21.19225 10 02 55.89 +08 54 23.5 21.1 V G96 – Mt. Lemmon Survey MPS 425837
2012 05 21.19937 10 02 56.22 +08 54 22.7 21.5 V G96 – Mt. Lemmon Survey MPS 425837
2012 05 21.20696 10 02 56.47 +08 54 22.6 22.0 V G96 – Mt. Lemmon Survey MPS 425837
2012 05 21.21399 10 02 56.76 +08 54 22.5 22.3 V G96 – Mt. Lemmon Survey MPS 425837
2013 04 07.41275 16 04 54.91 -12 03 37.5 20.6 V 691 – Steward Observatory, Kitt Peak-Spacewatch MPS 463790
2013 04 07.43046 16 04 54.69 -12 03 32.3 20.8 V 691 – Steward Observatory, Kitt Peak-Spacewatch MPS 463790
2013 04 07.44871 16 04 54.45 -12 03 27.1 20.5 V 691 – Steward Observatory, Kitt Peak-Spacewatch MPS 463790
2013 04 10.44414 16 04 15.20 -11 48 37.0 20.7 V G96 – Mt. Lemmon Survey MPS 463790
2013 04 10.45224 16 04 15.06 -11 48 34.6 20.6 V G96 – Mt. Lemmon Survey MPS 463790
2013 04 10.46031 16 04 14.88 -11 48 31.7 21.0 V G96 – Mt. Lemmon Survey MPS 463790
2013 04 10.46848 16 04 14.73 -11 48 28.8 20.4 V G96 – Mt. Lemmon Survey MPS 463790
2013 05 12.44181 15 46 36.089 -08 58 13.70 20.1 w F51 – Pan-STARRS 1, Haleakala MPS 468469
2013 05 12.45506 15 46 35.468 -08 58 09.71 20.1 w F51 – Pan-STARRS 1, Haleakala MPS 468469
2013 05 12.46830 15 46 34.839 -08 58 05.81 20.1 w F51 – Pan-STARRS 1, Haleakala MPS 468469
2013 05 12.48153 15 46 34.220 -08 58 01.77 20.0 w F51 – Pan-STARRS 1, Haleakala MPS 468469
